Погода в Эрбаа

Турция     40˚40′17″N   36˚33′58″E
темп.,
°C
ветер,
м/с
пор.,
м/с
влажн.,
%
обл.,
%
осадки,
мм/ч
давл.,
гПа
погр.,
м
17 января, вс
вс1700:00+4˚св0291100 0.5 100494
03:00+5˚вюв1289100 0.5 100146
06:00+6˚юв2585100 0.5 999221
09:00+6˚юв0294100 3.7 1000152
12:00+8˚зюз2477100 1.4 1001686
15:00+7˚зсз3475100 3.4 1002747
18:00+1˚ссз3594100 4.3 1007359
21:00з1293100 6.6 1010206
18 января, пн
пн1800:00ссв1192100 1.3 1012208
03:00−1˚зсз2294100 2.6 1013193
06:00−1˚зсз1294100 1.6 1015164
09:00−1˚зсз1291100 2.7 1016184
12:00ссв1293100 1.9 1017286
15:00−1˚ссв2387100 4.4 1017428
18:00−3˚с2393100 1.5 1020307
21:00−5˚зсз019498 2.4 102238
19 января, вт
вт1900:00−6˚юз119297 0.1 102421
03:00−8˚ю018885 0.1 102421
06:00−8˚ююв018646 0.0 102461
09:00−7˚ю118335 0.0 102583
12:00−3˚юв01715 0.0 1024316
15:00−2˚ююв11672 0.0 1023370
18:00−5˚ююз11780 0.0 102521
21:00−6˚ю11780 0.0 102722
20 января, ср
ср2000:00−7˚ююв11780 0.0 102731
03:00−7˚вюв117935 0.0 102838
06:00−8˚вюв118079 0.0 102946
09:00−7˚вюв117661 0.0 103095
12:00−4˚вюв11680 0.0 1030401
15:00−2˚вюв01670 0.0 1029446
18:00−5˚ю11780 0.0 103121
21:00−6˚ю11780 0.0 103323
21 января, чт
чт2100:00−6˚юв11780 0.0 103344
03:00−6˚юв12765 0.0 103479
06:00−6˚вюв237477 0.0 1034124
09:00−6˚вюв237168 0.0 1035154
12:00−2˚вюв136512 0.0 1033363
15:00+1˚юв12648 0.0 1032472
18:00−2˚ю12743 0.0 103325
21:00−3˚юв22761 0.0 103365